TimeCST,TemperatureF,Dew PointF,Humidity,Sea Level PressureIn,VisibilityMPH,Wind Direction,Wind SpeedMPH,Gust SpeedMPH,PrecipitationIn,Events,Conditions,WindDirDegrees,DateUTC
12:15 AM,21.2,1.4,42,30.01,10.0,East,8.1,-,N/A,,Scattered Clouds,100,2013-03-04 06:15:00
12:35 AM,21.2,1.4,42,30.01,10.0,East,5.8,-,N/A,,Mostly Cloudy,100,2013-03-04 06:35:00
12:55 AM,21.2,3.2,46,30.02,10.0,East,8.1,-,N/A,,Overcast,100,2013-03-04 06:55:00
1:15 AM,21.2,3.2,46,30.02,10.0,East,8.1,-,N/A,,Overcast,100,2013-03-04 07:15:00
1:55 AM,21.2,3.2,46,30.01,10.0,East,8.1,-,N/A,,Overcast,100,2013-03-04 07:55:00
2:15 AM,21.2,5.0,50,30.01,10.0,East,6.9,-,N/A,,Overcast,100,2013-03-04 08:15:00
2:35 AM,21.2,5.0,50,30.00,10.0,East,8.1,-,N/A,,Overcast,100,2013-03-04 08:35:00
2:55 AM,23.0,5.0,46,30.00,10.0,East,6.9,-,N/A,,Overcast,100,2013-03-04 08:55:00
3:15 AM,21.2,5.0,50,30.00,10.0,East,6.9,-,N/A,,Overcast,100,2013-03-04 09:15:00
3:35 AM,21.2,5.0,50,29.99,10.0,East,8.1,-,N/A,,Overcast,100,2013-03-04 09:35:00
3:55 AM,21.2,5.0,50,29.99,10.0,East,8.1,-,N/A,,Overcast,100,2013-03-04 09:55:00
4:15 AM,23.0,5.0,46,29.99,10.0,East,6.9,-,N/A,,Overcast,100,2013-03-04 10:15:00
4:35 AM,23.0,5.0,46,29.99,10.0,ESE,8.1,-,N/A,,Overcast,110,2013-03-04 10:35:00
4:55 AM,23.0,6.8,50,29.99,10.0,ESE,8.1,-,N/A,,Overcast,110,2013-03-04 10:55:00
5:15 AM,23.0,6.8,50,29.99,10.0,ESE,8.1,-,N/A,,Overcast,110,2013-03-04 11:15:00
5:35 AM,23.0,8.6,54,29.99,10.0,ESE,9.2,-,N/A,,Overcast,110,2013-03-04 11:35:00
5:55 AM,23.0,8.6,54,29.99,10.0,ESE,9.2,-,N/A,,Overcast,110,2013-03-04 11:55:00
6:15 AM,23.0,8.6,54,29.99,10.0,ESE,10.4,-,N/A,,Overcast,110,2013-03-04 12:15:00
6:35 AM,23.0,8.6,54,29.98,10.0,East,9.2,-,N/A,,Overcast,100,2013-03-04 12:35:00
6:55 AM,23.0,8.6,54,29.98,10.0,ESE,11.5,-,N/A,,Overcast,110,2013-03-04 12:55:00
7:15 AM,24.8,8.6,50,29.98,10.0,ESE,10.4,-,N/A,,Overcast,120,2013-03-04 13:15:00
7:35 AM,24.8,8.6,50,29.99,10.0,ESE,11.5,18.4,N/A,,Overcast,110,2013-03-04 13:35:00
7:55 AM,24.8,8.6,50,29.99,10.0,ESE,13.8,18.4,N/A,,Overcast,110,2013-03-04 13:55:00
8:15 AM,24.8,8.6,50,29.99,10.0,ESE,10.4,18.4,N/A,,Overcast,120,2013-03-04 14:15:00
8:35 AM,24.8,8.6,50,29.99,10.0,ESE,10.4,18.4,N/A,,Overcast,120,2013-03-04 14:35:00
8:55 AM,26.6,8.6,47,29.99,10.0,ESE,13.8,18.4,N/A,,Overcast,120,2013-03-04 14:55:00
9:15 AM,26.6,8.6,47,29.99,10.0,ESE,12.7,18.4,N/A,,Overcast,110,2013-03-04 15:15:00
9:35 AM,26.6,8.6,47,30.00,10.0,ESE,10.4,17.3,N/A,,Overcast,120,2013-03-04 15:35:00
9:55 AM,26.6,10.4,51,30.00,10.0,East,10.4,19.6,N/A,,Overcast,100,2013-03-04 15:55:00
10:15 AM,26.6,10.4,51,30.00,10.0,East,9.2,-,N/A,,Overcast,100,2013-03-04 16:15:00
10:35 AM,26.6,10.4,51,30.00,10.0,East,10.4,16.1,N/A,,Overcast,100,2013-03-04 16:35:00
10:55 AM,26.6,10.4,51,30.00,10.0,East,12.7,-,N/A,,Overcast,90,2013-03-04 16:55:00
11:15 AM,26.6,14.0,59,30.00,5.0,ESE,10.4,18.4,N/A,,Haze,110,2013-03-04 17:15:00
11:35 AM,24.8,17.6,74,30.00,3.0,ESE,13.8,18.4,N/A,Snow,Light Snow,110,2013-03-04 17:35:00
11:55 AM,24.8,17.6,74,29.99,3.0,East,13.8,-,N/A,Snow,Light Snow,100,2013-03-04 17:55:00
12:15 PM,24.8,17.6,74,29.99,1.8,East,12.7,18.4,N/A,Snow,Light Snow,100,2013-03-04 18:15:00
12:55 PM,24.8,19.4,80,29.97,2.0,East,13.8,21.9,N/A,Snow,Light Snow,100,2013-03-04 18:55:00
1:15 PM,24.8,19.4,80,29.97,1.2,East,12.7,19.6,N/A,Snow,Light Snow,100,2013-03-04 19:15:00
1:35 PM,26.6,21.2,80,29.98,1.8,East,10.4,18.4,N/A,Snow,Light Snow,100,2013-03-04 19:35:00
1:55 PM,24.8,21.2,86,29.97,1.0,East,11.5,20.7,N/A,Snow,Light Snow,100,2013-03-04 19:55:00
2:15 PM,24.8,21.2,86,29.98,2.5,East,12.7,16.1,N/A,Snow,Light Snow,100,2013-03-04 20:15:00
2:35 PM,24.8,19.4,80,29.98,3.0,East,10.4,-,N/A,Snow,Light Snow,100,2013-03-04 20:35:00
2:55 PM,26.6,19.4,74,29.97,7.0,East,11.5,-,N/A,,Overcast,100,2013-03-04 20:55:00
3:15 PM,26.6,19.4,74,29.97,5.0,East,15.0,19.6,N/A,,Overcast,100,2013-03-04 21:15:00
3:35 PM,26.6,19.4,74,29.97,5.0,East,13.8,-,N/A,Snow,Light Snow,100,2013-03-04 21:35:00
3:55 PM,24.8,19.4,80,29.98,3.0,ESE,10.4,18.4,N/A,Snow,Light Snow,110,2013-03-04 21:55:00
4:15 PM,24.8,19.4,80,29.99,7.0,East,10.4,17.3,N/A,Snow,Light Snow,100,2013-03-04 22:15:00
4:35 PM,24.8,19.4,80,29.99,10.0,East,11.5,-,N/A,Snow,Light Snow,100,2013-03-04 22:35:00
4:55 PM,24.8,19.4,80,30.00,5.0,East,10.4,-,N/A,,Overcast,100,2013-03-04 22:55:00
5:15 PM,24.8,19.4,80,29.99,7.0,East,10.4,16.1,N/A,,Overcast,100,2013-03-04 23:15:00
5:35 PM,24.8,19.4,80,29.99,10.0,ESE,9.2,16.1,N/A,,Overcast,110,2013-03-04 23:35:00
5:55 PM,24.8,19.4,80,29.99,10.0,East,9.2,-,N/A,,Overcast,100,2013-03-04 23:55:00
6:15 PM,24.8,19.4,80,29.99,10.0,East,9.2,-,N/A,Snow,Light Snow,100,2013-03-05 00:15:00
6:35 PM,24.8,19.4,80,29.99,7.0,East,10.4,-,N/A,Snow,Light Snow,100,2013-03-05 00:35:00
6:55 PM,26.6,21.2,80,29.99,5.0,East,8.1,-,N/A,Snow,Light Snow,100,2013-03-05 00:55:00
7:15 PM,26.6,21.2,80,30.00,5.0,East,9.2,-,N/A,Snow,Light Snow,100,2013-03-05 01:15:00
7:35 PM,26.6,21.2,80,30.00,5.0,ESE,11.5,-,N/A,Snow,Light Snow,110,2013-03-05 01:35:00
7:55 PM,26.6,21.2,80,30.00,5.0,East,8.1,-,N/A,Snow,Light Snow,100,2013-03-05 01:55:00
8:35 PM,26.6,21.2,80,30.02,10.0,East,4.6,-,N/A,Snow,Light Snow,100,2013-03-05 02:35:00
8:55 PM,26.6,21.2,80,30.03,10.0,ESE,3.5,-,N/A,Snow,Light Snow,110,2013-03-05 02:55:00
9:15 PM,26.6,21.2,80,30.04,4.0,Calm,Calm,-,N/A,Snow,Light Snow,0,2013-03-05 03:15:00
9:35 PM,24.8,23.0,93,30.04,2.5,ESE,3.5,-,N/A,Snow,Light Snow,110,2013-03-05 03:35:00
9:55 PM,24.8,23.0,93,30.04,2.0,East,3.5,-,N/A,Snow,Light Snow,100,2013-03-05 03:55:00
10:15 PM,24.8,23.0,93,30.04,1.5,Calm,Calm,-,N/A,Snow,Light Snow,0,2013-03-05 04:15:00
10:35 PM,24.8,23.0,93,30.04,2.0,East,4.6,-,N/A,Snow,Light Snow,100,2013-03-05 04:35:00
10:55 PM,24.8,23.0,93,30.04,1.8,East,5.8,-,N/A,Snow,Light Snow,90,2013-03-05 04:55:00
11:15 PM,24.8,23.0,93,30.03,2.5,East,5.8,-,N/A,Snow,Light Snow,100,2013-03-05 05:15:00
11:35 PM,24.8,23.0,93,30.03,2.0,East,6.9,-,N/A,Snow,Light Snow,90,2013-03-05 05:35:00
11:55 PM,24.8,23.0,93,30.02,2.5,East,6.9,-,N/A,Snow,Light Snow,90,2013-03-05 05:55:00